430  
ASUS41 KOKX 131506  
RWROKX  
 
REGIONAL WEATHER ROUNDUP  
NATIONAL WEATHER SERVICE NEW YORK NY  
1100 AM EDT THU AUG 13 2020  
 
NOTE: "FAIR" INDICATES FEW OR NO CLOUDS BELOW 12,000 FEET WITH NO  
SIGNIFICANT WEATHER AND/OR S TO VISIBILITY
.  
 
NYZ071-072-176-178-NJZ106-104-131600-  
NEW YORK CITY METRO AREA  
 
CITY SKY/WX TMP DP RH WIND PRES REMARKS
 
CENTRAL PARK RAIN 72 70 93 CALM 30.13F FOG  
BRONX LEHMAN C N/A 75 66 73 E3 N/A  
LAGUARDIA ARPT LGT RAIN 76 67 73 NE3 30.10S  
QUEENS COLLEGE N/A 75 70 83 N6 N/A  
KENNEDY INTL LGT RAIN 80 72 76 CALM 30.10F  
BREEZY POINT N/A 75 N/A N/A SW1 N/A  
BROOKLYN COLL N/A 75 70 83 N7 N/A  
STATEN ISLAND N/A 72 70 94 N5 N/A  
NEWARK/LIBERTY RAIN 72 68 87 NW7 30.10S FOG  
TETERBORO LGT RAIN 73 70 90 E3 30.09S  

 
 
NYZ177-179-078>081-131600-  
LONG ISLAND NEW YORK  
 
CITY SKY/WX TMP DP RH WIND PRES REMARKS
 
JONES BEACH N/A 75 N/A N/A MISG N/A  
WANTAGH N/A 79 73 83 SE5 N/A  
HEMPSTEAD NOT AVBL  
MATINECOCK PT N/A 75 N/A N/A E7 N/A  
FARMINGDALE PTSUNNY 81 73 76 SE7 30.10R  
MACARTHUR/ISP CLOUDY 81 73 76 SE6 30.09S  
SHIRLEY PTSUNNY 84 72 67 SE8 30.10R  
MT SINAI HARB NOT AVBL  
WESTHAMPTON MOSUNNY 81 75 82 SE7 30.12R  
EAST HAMPTON FAIR 82 70 67 S9 30.10R  
SOUTHOLD N/A 82 66 57 SE6 N/A  
MONTAUK N/A 81 67 62 VRB5 30.11S  

 
 
NYZ052-065-067-131600-  
HUDSON VALLEY  
 
CITY SKY/WX TMP DP RH WIND PRES REMARKS
 
WHITE PLAINS CLOUDY 78 64 61 NE3 30.11S  
LARCHMONT HARB N/A 73 N/A N/A E6 N/A  
CROTON ON HUDS N/A 81 N/A N/A E1 N/A  
SOMERS N/A 79 64 61 E2 N/A  
BREWSTER N/A 79 64 61 E3 N/A  
NEWBURGH PTSUNNY 79 64 61 E9 30.13F  
MONTGOMERY MOSUNNY 79 65 62 N7 30.13S  
OTISVILLE N/A 77 64 65 E5 N/A  
WARWICK N/A 77 68 73 E3 N/A  
SUFFERN N/A 75 68 78 S1 N/A  
POUGHKEEPSIE MOSUNNY 81 64 56 N5 30.11F  
ALBANY PTSUNNY 71 65 81 CALM 30.15S  

 
 
NJZ001-105-106-008-010-013-015-019>022-104-131600-  
NEW JERSEY  
 
CITY SKY/WX TMP DP RH WIND PRES REMARKS
 
NEWARK/LIBERTY RAIN 72 68 87 NW7 30.10S FOG  
TETERBORO LGT RAIN 73 70 90 E3 30.09S  
CALDWELL CLOUDY 77 66 68 CALM 30.12S  
SOMERVILLE CLOUDY 71 69 93 CALM 30.09F  
LINDEN RAIN N/A N/A N/A CALM 30.11S  
PERTH AMBOY N/A 72 N/A N/A N9 N/A  
SUSSEX PTSUNNY 78 65 63 NE7 30.13S  
ANDOVER N/A 78 66 66 CALM 30.14S  
TRENTON CLOUDY 76 72 87 N7 30.10R  
MILLVILLE CLOUDY 80 75 84 E3 30.09S  
ATLANTIC CITY PTSUNNY 83 74 74 S6 30.09  
WRIGHTSTOWN MOSUNNY 78 74 85 E3 30.10  
TOMS RIVER PTSUNNY 77 74 90 CALM 30.10S  
BELMAR PTSUNNY 81 77 88 N3 30.11S  

 
 
PAZ047>061-062-071-131600-  
EASTERN PENNSYLVANIA  
 
CITY SKY/WX TMP DP RH WIND PRES REMARKS
 
PHILADELPHIA CLOUDY 81 73 76 E5 30.09R  
ALLENTOWN PTSUNNY 78 64 61 NE9 30.12S  
SCRANTON PTSUNNY 77 63 61 CALM 30.15F  

 
 
CTZ002-004>006-009-010-012-RIZ004-006-007-MAZ004-011-015-131600-  
SOUTHERN NEW ENGLAND  
 
IN CT  
 
CITY SKY/WX TMP DP RH WIND PRES REMARKS
 
BRADLEY INTL PTSUNNY 83 62 49 NE7 30.12S  
HARTFORD PTSUNNY 82 63 52 N6 30.10F  
DANBURY MOSUNNY 79 66 64 E7 30.13S  
WTRBURY/OXFORD MOSUNNY 80 65 59 NE6 30.14S  
NORWALK HARBOR N/A 77 N/A N/A E8 N/A  
BRIDGEPORT CLOUDY 81 65 58 E9 30.10S  
MERIDEN MOSUNNY 84 62 47 VRB5 30.11S  
NEW HAVEN CLOUDY 84 67 56 E5 30.10S  
CHESTER FAIR 82 66 57 E5 30.12  
GROTON PTSUNNY 82 68 62 CALM 30.09S  
WILLIMANTIC PTSUNNY 83 64 52 VRB3 30.11S  
 
IN RI  
 
CITY SKY/WX TMP DP RH WIND PRES REMARKS
 
PROVIDENCE PTSUNNY 83 65 54 NE6 30.11S  
BLOCK ISLAND MOSUNNY 77 67 71 NE7 30.12R  
WESTERLY CLOUDY 81 64 56 N5 30.11R  
 
IN MA  
 
CITY SKY/WX TMP DP RH WIND PRES REMARKS
 
BOSTON PTSUNNY 83 57 41 E9 30.11S  
WORCESTER MOSUNNY 83 56 39 VRB6 30.16S  
WESTFIELD PTSUNNY 82 60 47 VRB5 30.12F  
PROVINCETOWN CLOUDY 72 66 83 VRB3 30.11R  
NANTUCKET PTSUNNY 79 72 79 SW9 30.09S  

 
 
ANZ330-335-338-340-345-350-353-355-131600-  
COASTAL MARINE OBSERVATIONS  
 
 
STATION/POSITION TIME SKY/WX TEMP WIND PRES VSBY WAVE
 
AIR SEA DIR/SP/G HT/PER  
(UTC) (F) (DEG/KT/KT) (MB) (MI) (FT/S)  
NY HARB ENTRANCE 1440 74 330/ 4/ 6 1018.5  
20 S FIRE ISLAND 1450 76 240/ 4/ 4 1018.6 1/10  
GREAT SOUTH BAY 1415 75 210/ 2/ 6 N/A  
23 SSW MONTAUK P 1450 74 75 230/ 4/ 6 1019.5 1/ 9  
15 E BARNEGAT LI 1426 75 N/A 2/11  
HUDSON CANYON 1450 1019.5 1/10  
KINGS POINT 1430 75 40/ 8/ 8 1020.2  
EXECUTION ROCKS 1430 74 30/ 10/ 12 N/A  
WESTERN LI SOUND 1345 77 60/ 10/ 12 N/A  
CENTRAL LI SOUND NOT AVBL  
ROBBINS REEF 1430 73 330/ 3/ 6 1019.4  

 
 
>>>>>>>>>>>>>>>>>>>>>>>>>>>> KEY <<<<<<<<<<<<<<<<<<<<<<<<<<<  
> <  
> SKY/WX - SKY CONDITION/PRESENT WEATHER <  
> TMP - TEMPERATURE IN FAHRENHEIT <  
> DP - DEW POINT IN FAHRENHEIT <  
> RH - RELATIVE HUMIDITY IN PERCENT <  
> WIND - DIRECTION (FROM) AND SPEED IN MPH <  
> PRES - MEAN SEA LEVEL PRESSURE (INCHES OF HG) <  
> WCI - WIND CHILL INDEX <  
> VSB - VISIBILITY IN MILES <  
> HX - HEAT INDEX <  
> TC - TEMPERATURE IN CELSIUS <  
> VRB - VARIABLE WIND DIRECTION <  
> <  
>>>>>>>>>>>>>>>>>>>>>>>>>>>> KEY <<<<<<<<<<<<<<<<<<<<<<<<<<<  
 
 
CLICK HERE TO GO TO PREVIOUS BULLETINS.

The Nexlab NY Page
The Nexlab NJ Page
The Nexlab CT Page Main Text Page